Year,Month,Day,Hour,Minute,Value (Times are PST for temperature in C)
2009,08,02,00,00,23.40
2009,08,02,00,01,23.40
2009,08,02,00,02,23.40
2009,08,02,00,03,23.40
2009,08,02,00,04,23.40
2009,08,02,00,05,23.40
2009,08,02,00,06,23.30
2009,08,02,00,07,23.30
2009,08,02,00,08,23.30
2009,08,02,00,09,23.30
2009,08,02,00,10,23.30
2009,08,02,00,11,23.30
2009,08,02,00,12,23.20
2009,08,02,00,13,23.20
2009,08,02,00,14,23.20
2009,08,02,00,15,23.20
2009,08,02,00,16,23.10
2009,08,02,00,17,23.10
2009,08,02,00,18,23.00
2009,08,02,00,19,23.00
2009,08,02,00,20,22.90
2009,08,02,00,21,22.90
2009,08,02,00,22,22.80
2009,08,02,00,23,22.80
2009,08,02,00,24,22.70
2009,08,02,00,25,22.70
2009,08,02,00,26,22.60
2009,08,02,00,27,22.60
2009,08,02,00,28,22.60
2009,08,02,00,29,22.50
2009,08,02,00,30,22.50
2009,08,02,00,31,22.50
2009,08,02,00,32,22.40
2009,08,02,00,33,22.40
2009,08,02,00,34,22.40
2009,08,02,00,35,22.40
2009,08,02,00,36,22.40
2009,08,02,00,37,22.30
2009,08,02,00,38,22.30
2009,08,02,00,39,22.30
2009,08,02,00,40,22.20
2009,08,02,00,41,22.20
2009,08,02,00,42,22.20
2009,08,02,00,43,22.20
2009,08,02,00,44,22.20
2009,08,02,00,45,22.20
2009,08,02,00,46,22.20
2009,08,02,00,47,22.20
2009,08,02,00,48,22.20
2009,08,02,00,49,22.20
2009,08,02,00,50,22.10
2009,08,02,00,51,22.00
2009,08,02,00,52,22.00
2009,08,02,00,53,21.90
2009,08,02,00,54,21.90
2009,08,02,00,55,21.90
2009,08,02,00,56,21.90
2009,08,02,00,57,21.90
2009,08,02,00,58,21.90
2009,08,02,00,59,21.90
2009,08,02,01,00,21.80
2009,08,02,01,01,21.80
2009,08,02,01,02,21.70
2009,08,02,01,03,21.70
2009,08,02,01,04,21.60
2009,08,02,01,05,21.60
2009,08,02,01,06,21.50
2009,08,02,01,07,21.50
2009,08,02,01,08,21.40
2009,08,02,01,09,21.30
2009,08,02,01,10,21.30
2009,08,02,01,11,21.30
2009,08,02,01,12,21.30
2009,08,02,01,13,21.20
2009,08,02,01,14,21.20
2009,08,02,01,15,21.20
2009,08,02,01,16,21.20
2009,08,02,01,17,21.10
2009,08,02,01,18,21.10
2009,08,02,01,19,21.10
2009,08,02,01,20,21.00
2009,08,02,01,21,21.00
2009,08,02,01,22,20.90
2009,08,02,01,23,20.90
2009,08,02,01,24,20.80
2009,08,02,01,25,20.80
2009,08,02,01,26,20.80
2009,08,02,01,27,20.70
2009,08,02,01,28,20.70
2009,08,02,01,29,20.70
2009,08,02,01,30,20.70
2009,08,02,01,31,20.70
2009,08,02,01,32,20.70
2009,08,02,01,33,20.60
2009,08,02,01,34,20.60
2009,08,02,01,35,20.60
2009,08,02,01,36,20.60
2009,08,02,01,37,20.60
2009,08,02,01,38,20.50
2009,08,02,01,39,20.50
2009,08,02,01,40,20.40
2009,08,02,01,41,20.40
2009,08,02,01,42,20.40
2009,08,02,01,43,20.40
2009,08,02,01,44,20.30
2009,08,02,01,45,20.30
2009,08,02,01,46,20.30
2009,08,02,01,47,20.30
2009,08,02,01,48,20.40
2009,08,02,01,49,20.50
2009,08,02,01,50,20.60
2009,08,02,01,51,20.70
2009,08,02,01,52,20.80
2009,08,02,01,53,20.90
2009,08,02,01,54,21.00
2009,08,02,01,55,21.20
2009,08,02,01,56,21.30
2009,08,02,01,57,21.50
2009,08,02,01,58,21.60
2009,08,02,01,59,21.60
2009,08,02,02,00,21.70
2009,08,02,02,01,21.70
2009,08,02,02,02,21.80
2009,08,02,02,03,21.80
2009,08,02,02,04,21.80
2009,08,02,02,05,21.80
2009,08,02,02,06,21.70
2009,08,02,02,07,21.70
2009,08,02,02,08,21.70
2009,08,02,02,09,21.70
2009,08,02,02,10,21.70
2009,08,02,02,11,21.60
2009,08,02,02,12,21.60
2009,08,02,02,13,21.60
2009,08,02,02,14,21.50
2009,08,02,02,15,21.50
2009,08,02,02,16,21.40
2009,08,02,02,17,21.40
2009,08,02,02,18,21.40
2009,08,02,02,19,21.30
2009,08,02,02,20,21.30
2009,08,02,02,21,21.30
2009,08,02,02,22,21.30
2009,08,02,02,23,21.30
2009,08,02,02,24,21.20
2009,08,02,02,25,21.20
2009,08,02,02,26,21.10
2009,08,02,02,27,21.10
2009,08,02,02,28,21.10
2009,08,02,02,29,21.00
2009,08,02,02,30,21.00
2009,08,02,02,31,20.90
2009,08,02,02,32,20.90
2009,08,02,02,33,20.80
2009,08,02,02,34,20.80
2009,08,02,02,35,20.70
2009,08,02,02,36,20.70
2009,08,02,02,37,20.70
2009,08,02,02,38,20.60
2009,08,02,02,39,20.60
2009,08,02,02,40,20.50
2009,08,02,02,41,20.50
2009,08,02,02,42,20.40
2009,08,02,02,43,20.40
2009,08,02,02,44,20.40
2009,08,02,02,45,20.30
2009,08,02,02,46,20.30
2009,08,02,02,47,20.30
2009,08,02,02,48,20.20
2009,08,02,02,49,20.20
2009,08,02,02,50,20.20
2009,08,02,02,51,20.20
2009,08,02,02,52,20.20
2009,08,02,02,53,20.20
2009,08,02,02,54,20.10
2009,08,02,02,55,20.10
2009,08,02,02,56,20.10
2009,08,02,02,57,20.10
2009,08,02,02,58,20.10
2009,08,02,02,59,20.10
2009,08,02,03,00,20.00
2009,08,02,03,01,20.00
2009,08,02,03,02,20.00
2009,08,02,03,03,19.90
2009,08,02,03,04,19.90
2009,08,02,03,05,19.80
2009,08,02,03,06,19.80
2009,08,02,03,07,19.70
2009,08,02,03,08,19.70
2009,08,02,03,09,19.70
2009,08,02,03,10,19.70
2009,08,02,03,11,19.70
2009,08,02,03,12,19.70
2009,08,02,03,13,19.70
2009,08,02,03,14,19.70
2009,08,02,03,15,19.70
2009,08,02,03,16,19.70
2009,08,02,03,17,19.70
2009,08,02,03,18,19.70
2009,08,02,03,19,19.60
2009,08,02,03,20,19.60
2009,08,02,03,21,19.60
2009,08,02,03,22,19.60
2009,08,02,03,23,19.60
2009,08,02,03,24,19.60
2009,08,02,03,25,19.60
2009,08,02,03,26,19.70
2009,08,02,03,27,19.70
2009,08,02,03,28,19.70
2009,08,02,03,29,19.70
2009,08,02,03,30,19.70
2009,08,02,03,31,19.70
2009,08,02,03,32,19.70
2009,08,02,03,33,19.70
2009,08,02,03,34,19.70
2009,08,02,03,35,19.70
2009,08,02,03,36,19.70
2009,08,02,03,37,19.60
2009,08,02,03,38,19.60
2009,08,02,03,39,19.60
2009,08,02,03,40,19.60
2009,08,02,03,41,19.60
2009,08,02,03,42,19.60
2009,08,02,03,43,19.60
2009,08,02,03,44,19.60
2009,08,02,03,45,19.60
2009,08,02,03,46,19.60
2009,08,02,03,47,19.60
2009,08,02,03,48,19.60
2009,08,02,03,49,19.60
2009,08,02,03,50,19.60
2009,08,02,03,51,19.60
2009,08,02,03,52,19.70
2009,08,02,03,53,19.70
2009,08,02,03,54,19.70
2009,08,02,03,55,19.70
2009,08,02,03,56,19.70
2009,08,02,03,57,19.70
2009,08,02,03,58,19.70
2009,08,02,03,59,19.70
2009,08,02,04,00,19.70
2009,08,02,04,01,19.70
2009,08,02,04,02,19.80
2009,08,02,04,03,19.80
2009,08,02,04,04,19.80
2009,08,02,04,05,19.80
2009,08,02,04,06,19.80
2009,08,02,04,07,19.70
2009,08,02,04,08,19.70
2009,08,02,04,09,19.70
2009,08,02,04,10,19.70
2009,08,02,04,11,19.70
2009,08,02,04,12,19.60
2009,08,02,04,13,19.60
2009,08,02,04,14,19.60
2009,08,02,04,15,19.60
2009,08,02,04,16,19.60
2009,08,02,04,17,19.60
2009,08,02,04,18,19.60
2009,08,02,04,19,19.50
2009,08,02,04,20,19.50
2009,08,02,04,21,19.50
2009,08,02,04,22,19.40
2009,08,02,04,23,19.40
2009,08,02,04,24,19.30
2009,08,02,04,25,19.30
2009,08,02,04,26,19.30
2009,08,02,04,27,19.30
2009,08,02,04,28,19.20
2009,08,02,04,29,19.20
2009,08,02,04,30,19.10
2009,08,02,04,31,19.10
2009,08,02,04,32,19.00
2009,08,02,04,33,19.00
2009,08,02,04,34,19.00
2009,08,02,04,35,19.00
2009,08,02,04,36,19.00
2009,08,02,04,37,19.00
2009,08,02,04,38,19.00
2009,08,02,04,39,19.00
2009,08,02,04,40,19.00
2009,08,02,04,41,19.00
2009,08,02,04,42,19.10
2009,08,02,04,43,19.10
2009,08,02,04,44,19.00
2009,08,02,04,45,19.00
2009,08,02,04,46,19.00
2009,08,02,04,47,18.90
2009,08,02,04,48,18.90
2009,08,02,04,49,18.90
2009,08,02,04,50,18.80
2009,08,02,04,51,18.80
2009,08,02,04,52,18.70
2009,08,02,04,53,18.70
2009,08,02,04,54,18.60
2009,08,02,04,55,18.50
2009,08,02,04,56,18.40
2009,08,02,04,57,18.30
2009,08,02,04,58,18.30
2009,08,02,04,59,18.20
2009,08,02,05,00,18.20
2009,08,02,05,01,18.20
2009,08,02,05,02,18.10
2009,08,02,05,03,18.10
2009,08,02,05,04,18.10
2009,08,02,05,05,18.10
2009,08,02,05,06,18.10
2009,08,02,05,07,18.10
2009,08,02,05,08,18.10
2009,08,02,05,09,18.20
2009,08,02,05,10,18.20
2009,08,02,05,11,18.20
2009,08,02,05,12,18.20
2009,08,02,05,13,18.10
2009,08,02,05,14,18.10
2009,08,02,05,15,18.00
2009,08,02,05,16,18.00
2009,08,02,05,17,17.90
2009,08,02,05,18,17.90
2009,08,02,05,19,17.80
2009,08,02,05,20,17.70
2009,08,02,05,21,17.70
2009,08,02,05,22,17.60
2009,08,02,05,23,17.50
2009,08,02,05,24,17.50
2009,08,02,05,25,17.40
2009,08,02,05,26,17.40
2009,08,02,05,27,17.30
2009,08,02,05,28,17.30
2009,08,02,05,29,17.30
2009,08,02,05,30,17.20
2009,08,02,05,31,17.20
2009,08,02,05,32,17.20
2009,08,02,05,33,17.10
2009,08,02,05,34,17.10
2009,08,02,05,35,17.10
2009,08,02,05,36,17.10
2009,08,02,05,37,17.00
2009,08,02,05,38,17.00
2009,08,02,05,39,16.90
2009,08,02,05,40,16.90
2009,08,02,05,41,16.90
2009,08,02,05,42,16.80
2009,08,02,05,43,16.80
2009,08,02,05,44,16.80
2009,08,02,05,45,16.80
2009,08,02,05,46,16.80
2009,08,02,05,47,16.80
2009,08,02,05,48,16.80
2009,08,02,05,49,16.70
2009,08,02,05,50,16.70
2009,08,02,05,51,16.70
2009,08,02,05,52,16.70
2009,08,02,05,53,16.60
2009,08,02,05,54,16.60
2009,08,02,05,55,16.60
2009,08,02,05,56,16.60
2009,08,02,05,57,16.60
2009,08,02,05,58,16.60
2009,08,02,05,59,16.60
2009,08,02,06,00,16.60
2009,08,02,06,01,16.60
2009,08,02,06,02,16.60
2009,08,02,06,03,16.70
2009,08,02,06,04,16.70
2009,08,02,06,05,16.70
2009,08,02,06,06,16.70
2009,08,02,06,07,16.70
2009,08,02,06,08,16.70
2009,08,02,06,09,16.80
2009,08,02,06,10,16.80
2009,08,02,06,11,16.80
2009,08,02,06,12,16.80
2009,08,02,06,13,16.80
2009,08,02,06,14,16.90
2009,08,02,06,15,16.90
2009,08,02,06,16,16.90
2009,08,02,06,17,16.90
2009,08,02,06,18,16.90
2009,08,02,06,19,17.00
2009,08,02,06,20,17.00
2009,08,02,06,21,17.10
2009,08,02,06,22,17.10
2009,08,02,06,23,17.20
2009,08,02,06,24,17.30
2009,08,02,06,25,17.40
2009,08,02,06,26,17.50
2009,08,02,06,27,17.50
2009,08,02,06,28,17.60
2009,08,02,06,29,17.60
2009,08,02,06,30,17.70
2009,08,02,06,31,17.70
2009,08,02,06,32,17.80
2009,08,02,06,33,17.90
2009,08,02,06,34,18.00
2009,08,02,06,35,18.10
2009,08,02,06,36,18.20
2009,08,02,06,37,18.20
2009,08,02,06,38,18.30
2009,08,02,06,39,18.40
2009,08,02,06,40,18.50
2009,08,02,06,41,18.60
2009,08,02,06,42,18.70
2009,08,02,06,43,18.70
2009,08,02,06,44,18.80
2009,08,02,06,45,18.90
2009,08,02,06,46,19.00
2009,08,02,06,47,19.10
2009,08,02,06,48,19.20
2009,08,02,06,49,19.30
2009,08,02,06,50,19.40
2009,08,02,06,51,19.50
2009,08,02,06,52,19.50
2009,08,02,06,53,19.60
2009,08,02,06,54,19.50
2009,08,02,06,55,19.40
2009,08,02,06,56,19.40
2009,08,02,06,57,19.40
2009,08,02,06,58,19.40
2009,08,02,06,59,19.40
2009,08,02,07,00,19.50
2009,08,02,07,01,19.60
2009,08,02,07,02,19.70
2009,08,02,07,03,19.80
2009,08,02,07,04,19.90
2009,08,02,07,05,19.90
2009,08,02,07,06,20.00
2009,08,02,07,07,20.10
2009,08,02,07,08,20.10
2009,08,02,07,09,20.20
2009,08,02,07,10,20.30
2009,08,02,07,11,20.40
2009,08,02,07,12,20.40
2009,08,02,07,13,20.50
2009,08,02,07,14,20.50
2009,08,02,07,15,20.60
2009,08,02,07,16,20.70
2009,08,02,07,17,20.70
2009,08,02,07,18,20.80
2009,08,02,07,19,20.80
2009,08,02,07,20,20.80
2009,08,02,07,21,20.80
2009,08,02,07,22,20.70
2009,08,02,07,23,20.70
2009,08,02,07,24,20.70
2009,08,02,07,25,20.70
2009,08,02,07,26,20.70
2009,08,02,07,27,20.60
2009,08,02,07,28,20.60
2009,08,02,07,29,20.60
2009,08,02,07,30,20.60
2009,08,02,07,31,20.70
2009,08,02,07,32,20.80
2009,08,02,07,33,20.80
2009,08,02,07,34,20.90
2009,08,02,07,35,21.00
2009,08,02,07,36,21.10
2009,08,02,07,37,21.10
2009,08,02,07,38,21.20
2009,08,02,07,39,21.30
2009,08,02,07,40,21.30
2009,08,02,07,41,21.40
2009,08,02,07,42,21.50
2009,08,02,07,43,21.50
2009,08,02,07,44,21.60
2009,08,02,07,45,21.60
2009,08,02,07,46,21.60
2009,08,02,07,47,21.70
2009,08,02,07,48,21.70
2009,08,02,07,49,21.70
2009,08,02,07,50,21.70
2009,08,02,07,51,21.60
2009,08,02,07,52,21.60
2009,08,02,07,53,21.60
2009,08,02,07,54,21.60
2009,08,02,07,55,21.70
2009,08,02,07,56,21.70
2009,08,02,07,57,21.60
2009,08,02,07,58,21.60
2009,08,02,07,59,21.60
2009,08,02,08,00,21.60
2009,08,02,08,01,21.70
2009,08,02,08,02,21.70
2009,08,02,08,03,21.70
2009,08,02,08,04,21.70
2009,08,02,08,05,21.80
2009,08,02,08,06,21.80
2009,08,02,08,07,21.70
2009,08,02,08,08,21.70
2009,08,02,08,09,21.70
2009,08,02,08,10,21.80
2009,08,02,08,11,21.80
2009,08,02,08,12,21.80
2009,08,02,08,13,21.80
2009,08,02,08,14,21.80
2009,08,02,08,15,21.80
2009,08,02,08,16,21.80
2009,08,02,08,17,21.80
2009,08,02,08,18,21.80
2009,08,02,08,19,21.80
2009,08,02,08,20,21.80
2009,08,02,08,21,21.80
2009,08,02,08,22,21.90
2009,08,02,08,23,21.90
2009,08,02,08,24,22.00
2009,08,02,08,25,22.00
2009,08,02,08,26,22.00
2009,08,02,08,27,22.10
2009,08,02,08,28,22.10
2009,08,02,08,29,22.10
2009,08,02,08,30,22.00
2009,08,02,08,31,22.10
2009,08,02,08,32,22.10
2009,08,02,08,33,22.10
2009,08,02,08,34,22.00
2009,08,02,08,35,22.00
2009,08,02,08,36,22.00
2009,08,02,08,37,22.10
2009,08,02,08,38,22.10
2009,08,02,08,39,22.10
2009,08,02,08,40,22.10
2009,08,02,08,41,22.10
2009,08,02,08,42,22.10
2009,08,02,08,43,22.10
2009,08,02,08,44,22.20
2009,08,02,08,45,22.20
2009,08,02,08,46,22.20
2009,08,02,08,47,22.30
2009,08,02,08,48,22.30
2009,08,02,08,49,22.30
2009,08,02,08,50,22.20
2009,08,02,08,51,22.10
2009,08,02,08,52,22.00
2009,08,02,08,53,21.90
2009,08,02,08,54,21.90
2009,08,02,08,55,21.90
2009,08,02,08,56,21.90
2009,08,02,08,57,21.90
2009,08,02,08,58,22.00
2009,08,02,08,59,22.00
2009,08,02,09,00,22.10
2009,08,02,09,01,22.10
2009,08,02,09,02,22.20
2009,08,02,09,03,22.30
2009,08,02,09,04,22.30
2009,08,02,09,05,22.30
2009,08,02,09,06,22.40
2009,08,02,09,07,22.50
2009,08,02,09,08,22.50
2009,08,02,09,09,22.60
2009,08,02,09,10,22.70
2009,08,02,09,11,22.70
2009,08,02,09,12,22.80
2009,08,02,09,13,22.90
2009,08,02,09,14,23.00
2009,08,02,09,15,23.00
2009,08,02,09,16,23.10
2009,08,02,09,17,23.10
2009,08,02,09,18,23.10
2009,08,02,09,19,23.10
2009,08,02,09,20,23.10
2009,08,02,09,21,23.10
2009,08,02,09,22,23.00
2009,08,02,09,23,23.00
2009,08,02,09,24,22.80
2009,08,02,09,25,22.60
2009,08,02,09,26,22.40
2009,08,02,09,27,22.30
2009,08,02,09,28,22.10
2009,08,02,09,29,22.00
2009,08,02,09,30,21.90
2009,08,02,09,31,21.80
2009,08,02,09,32,21.80
2009,08,02,09,33,21.70
2009,08,02,09,34,21.60
2009,08,02,09,35,21.60
2009,08,02,09,36,21.60
2009,08,02,09,37,21.60
2009,08,02,09,38,21.50
2009,08,02,09,39,21.50
2009,08,02,09,40,21.50
2009,08,02,09,41,21.50
2009,08,02,09,42,21.60
2009,08,02,09,43,21.70
2009,08,02,09,44,21.80
2009,08,02,09,45,22.00
2009,08,02,09,46,22.10
2009,08,02,09,47,22.20
2009,08,02,09,48,22.20
2009,08,02,09,49,22.20
2009,08,02,09,50,22.20
2009,08,02,09,51,22.10
2009,08,02,09,52,22.10
2009,08,02,09,53,22.10
2009,08,02,09,54,22.00
2009,08,02,09,55,21.90
2009,08,02,09,56,21.90
2009,08,02,09,57,21.80
2009,08,02,09,58,21.80
2009,08,02,09,59,21.70
2009,08,02,10,00,21.70
2009,08,02,10,01,21.70
2009,08,02,10,02,21.70
2009,08,02,10,03,21.70
2009,08,02,10,04,21.80
2009,08,02,10,05,21.90
2009,08,02,10,06,22.00
2009,08,02,10,07,22.00
2009,08,02,10,08,22.00
2009,08,02,10,09,22.00
2009,08,02,10,10,21.90
2009,08,02,10,11,21.90
2009,08,02,10,12,21.90
2009,08,02,10,13,21.90
2009,08,02,10,14,21.90
2009,08,02,10,15,21.80
2009,08,02,10,16,21.80
2009,08,02,10,17,21.80
2009,08,02,10,18,21.80
2009,08,02,10,19,21.80
2009,08,02,10,20,21.80
2009,08,02,10,21,21.80
2009,08,02,10,22,21.80
2009,08,02,10,23,21.80
2009,08,02,10,24,21.80
2009,08,02,10,25,21.80
2009,08,02,10,26,21.80
2009,08,02,10,27,21.70
2009,08,02,10,28,21.70
2009,08,02,10,29,21.70
2009,08,02,10,30,21.80
2009,08,02,10,31,21.80
2009,08,02,10,32,21.80
2009,08,02,10,33,21.80
2009,08,02,10,34,21.80
2009,08,02,10,35,21.90
2009,08,02,10,36,22.00
2009,08,02,10,37,22.00
2009,08,02,10,38,22.00
2009,08,02,10,39,22.00
2009,08,02,10,40,22.00
2009,08,02,10,41,22.10
2009,08,02,10,42,22.10
2009,08,02,10,43,22.10
2009,08,02,10,44,22.10
2009,08,02,10,45,22.10
2009,08,02,10,46,22.20
2009,08,02,10,47,22.20
2009,08,02,10,48,22.20
2009,08,02,10,49,22.30
2009,08,02,10,50,22.30
2009,08,02,10,51,22.40
2009,08,02,10,52,22.50
2009,08,02,10,53,22.60
2009,08,02,10,54,22.60
2009,08,02,10,55,22.70
2009,08,02,10,56,22.80
2009,08,02,10,57,22.80
2009,08,02,10,58,22.90
2009,08,02,10,59,23.00
2009,08,02,11,00,23.10
2009,08,02,11,01,23.10
2009,08,02,11,02,23.30
2009,08,02,11,03,23.50
2009,08,02,11,04,23.50
2009,08,02,11,05,23.50
2009,08,02,11,06,23.40
2009,08,02,11,07,23.40
2009,08,02,11,08,23.40
2009,08,02,11,09,23.40
2009,08,02,11,10,23.40
2009,08,02,11,11,23.30
2009,08,02,11,12,23.20
2009,08,02,11,13,23.10
2009,08,02,11,14,23.00
2009,08,02,11,15,22.90
2009,08,02,11,16,22.80
2009,08,02,11,17,22.80
2009,08,02,11,18,22.70
2009,08,02,11,19,22.60
2009,08,02,11,20,22.60
2009,08,02,11,21,22.60
2009,08,02,11,22,22.60
2009,08,02,11,23,22.70
2009,08,02,11,24,22.70
2009,08,02,11,25,22.70
2009,08,02,11,26,22.70
2009,08,02,11,27,22.70
2009,08,02,11,28,22.70
2009,08,02,11,29,22.70
2009,08,02,11,30,22.70
2009,08,02,11,31,22.70
2009,08,02,11,32,22.80
2009,08,02,11,33,22.80
2009,08,02,11,34,22.90
2009,08,02,11,35,23.00
2009,08,02,11,36,23.10
2009,08,02,11,37,23.20
2009,08,02,11,38,23.20
2009,08,02,11,39,23.30
2009,08,02,11,40,23.30
2009,08,02,11,41,23.30
2009,08,02,11,42,23.20
2009,08,02,11,43,23.20
2009,08,02,11,44,23.10
2009,08,02,11,45,23.00
2009,08,02,11,46,22.90
2009,08,02,11,47,22.90
2009,08,02,11,48,22.80
2009,08,02,11,49,22.80
2009,08,02,11,50,22.80
2009,08,02,11,51,22.90
2009,08,02,11,52,23.00
2009,08,02,11,53,23.10
2009,08,02,11,54,23.20
2009,08,02,11,55,23.30
2009,08,02,11,56,23.30
2009,08,02,11,57,23.30
2009,08,02,11,58,23.20
2009,08,02,11,59,23.30
2009,08,02,12,00,23.30
2009,08,02,12,01,23.40
2009,08,02,12,02,23.40
2009,08,02,12,03,23.40
2009,08,02,12,04,23.40
2009,08,02,12,05,23.40
2009,08,02,12,06,23.30
2009,08,02,12,07,23.30
2009,08,02,12,08,23.30
2009,08,02,12,09,23.40
2009,08,02,12,10,23.50
2009,08,02,12,11,23.60
2009,08,02,12,12,23.70
2009,08,02,12,13,23.80
2009,08,02,12,14,23.90
2009,08,02,12,15,23.90
2009,08,02,12,16,24.00
2009,08,02,12,17,24.00
2009,08,02,12,18,24.10
2009,08,02,12,19,24.10
2009,08,02,12,20,24.10
2009,08,02,12,21,24.10
2009,08,02,12,22,24.20
2009,08,02,12,23,24.20
2009,08,02,12,24,24.10
2009,08,02,12,25,24.10
2009,08,02,12,26,24.00
2009,08,02,12,27,24.00
2009,08,02,12,28,24.00
2009,08,02,12,29,23.90
2009,08,02,12,30,23.90
2009,08,02,12,31,24.00
2009,08,02,12,32,24.10
2009,08,02,12,33,24.00
2009,08,02,12,34,24.00
2009,08,02,12,35,24.00
2009,08,02,12,36,23.90
2009,08,02,12,37,23.90
2009,08,02,12,38,23.90
2009,08,02,12,39,24.00
2009,08,02,12,40,24.10
2009,08,02,12,41,24.10
2009,08,02,12,42,24.10
2009,08,02,12,43,24.10
2009,08,02,12,44,24.10
2009,08,02,12,45,24.10
2009,08,02,12,46,24.10
2009,08,02,12,47,24.00
2009,08,02,12,48,23.90
2009,08,02,12,49,23.70
2009,08,02,12,50,23.50
2009,08,02,12,51,23.40
2009,08,02,12,52,23.40
2009,08,02,12,53,23.40
2009,08,02,12,54,23.50
2009,08,02,12,55,23.60
2009,08,02,12,56,23.80
2009,08,02,12,57,23.80
2009,08,02,12,58,23.90
2009,08,02,12,59,23.90
2009,08,02,13,00,23.90
2009,08,02,13,01,23.90
2009,08,02,13,02,23.90
2009,08,02,13,03,23.90
2009,08,02,13,04,23.90
2009,08,02,13,05,24.00
2009,08,02,13,06,24.10
2009,08,02,13,07,24.10
2009,08,02,13,08,24.10
2009,08,02,13,09,24.00
2009,08,02,13,10,24.00
2009,08,02,13,11,24.00
2009,08,02,13,12,24.10
2009,08,02,13,13,24.10
2009,08,02,13,14,24.00
2009,08,02,13,15,24.10
2009,08,02,13,16,24.10
2009,08,02,13,17,24.20
2009,08,02,13,18,24.20
2009,08,02,13,19,24.30
2009,08,02,13,20,24.30
2009,08,02,13,21,24.30
2009,08,02,13,22,24.20
2009,08,02,13,23,24.10
2009,08,02,13,24,24.10
2009,08,02,13,25,24.10
2009,08,02,13,26,24.20
2009,08,02,13,27,24.30
2009,08,02,13,28,24.40
2009,08,02,13,29,24.60
2009,08,02,13,30,24.70
2009,08,02,13,31,24.80
2009,08,02,13,32,24.80
2009,08,02,13,33,24.80
2009,08,02,13,34,24.80
2009,08,02,13,35,24.80
2009,08,02,13,36,24.80
2009,08,02,13,37,24.90
2009,08,02,13,38,24.90
2009,08,02,13,39,24.80
2009,08,02,13,40,24.80
2009,08,02,13,41,24.80
2009,08,02,13,42,24.80
2009,08,02,13,43,24.80
2009,08,02,13,44,24.80
2009,08,02,13,45,24.90
2009,08,02,13,46,24.90
2009,08,02,13,47,24.90
2009,08,02,13,48,24.90
2009,08,02,13,49,24.90
2009,08,02,13,50,24.90
2009,08,02,13,51,24.90
2009,08,02,13,52,24.80
2009,08,02,13,53,24.70
2009,08,02,13,54,24.70
2009,08,02,13,55,24.70
2009,08,02,13,56,24.50
2009,08,02,13,57,24.40
2009,08,02,13,58,24.30
2009,08,02,13,59,24.30
2009,08,02,14,00,24.30
2009,08,02,14,01,24.30
2009,08,02,14,02,24.30
2009,08,02,14,03,24.30
2009,08,02,14,04,24.30
2009,08,02,14,05,24.40
2009,08,02,14,06,24.40
2009,08,02,14,07,24.40
2009,08,02,14,08,24.40
2009,08,02,14,09,24.50
2009,08,02,14,10,24.50
2009,08,02,14,11,24.60
2009,08,02,14,12,24.60
2009,08,02,14,13,24.60
2009,08,02,14,14,24.60
2009,08,02,14,15,24.70
2009,08,02,14,16,24.70
2009,08,02,14,17,24.60
2009,08,02,14,18,24.60
2009,08,02,14,19,24.50
2009,08,02,14,20,24.50
2009,08,02,14,21,24.50
2009,08,02,14,22,24.60
2009,08,02,14,23,24.60
2009,08,02,14,24,24.70
2009,08,02,14,25,24.70
2009,08,02,14,26,24.70
2009,08,02,14,27,24.60
2009,08,02,14,28,24.60
2009,08,02,14,29,24.60
2009,08,02,14,30,24.70
2009,08,02,14,31,24.70
2009,08,02,14,32,24.80
2009,08,02,14,33,24.90
2009,08,02,14,34,25.00
2009,08,02,14,35,25.10
2009,08,02,14,36,25.20
2009,08,02,14,37,25.20
2009,08,02,14,38,25.20
2009,08,02,14,39,25.20
2009,08,02,14,40,25.10
2009,08,02,14,41,25.10
2009,08,02,14,42,25.10
2009,08,02,14,43,25.10
2009,08,02,14,44,25.20
2009,08,02,14,45,25.10
2009,08,02,14,46,25.00
2009,08,02,14,47,24.90
2009,08,02,14,48,24.80
2009,08,02,14,49,24.80
2009,08,02,14,50,24.80
2009,08,02,14,51,24.80
2009,08,02,14,52,24.90
2009,08,02,14,53,25.00
2009,08,02,14,54,25.00
2009,08,02,14,55,25.10
2009,08,02,14,56,25.10
2009,08,02,14,57,25.00
2009,08,02,14,58,24.90
2009,08,02,14,59,24.90
2009,08,02,15,00,25.00
2009,08,02,15,01,25.10
2009,08,02,15,02,25.20
2009,08,02,15,03,25.20
2009,08,02,15,04,25.20
2009,08,02,15,05,25.10
2009,08,02,15,06,25.10
2009,08,02,15,07,25.20
2009,08,02,15,08,25.20
2009,08,02,15,09,25.20
2009,08,02,15,10,25.20
2009,08,02,15,11,25.20
2009,08,02,15,12,25.10
2009,08,02,15,13,25.00
2009,08,02,15,14,24.90
2009,08,02,15,15,24.80
2009,08,02,15,16,24.80
2009,08,02,15,17,24.90
2009,08,02,15,18,24.90
2009,08,02,15,19,24.90
2009,08,02,15,20,25.00
2009,08,02,15,21,25.00
2009,08,02,15,22,25.10
2009,08,02,15,23,25.20
2009,08,02,15,24,25.30
2009,08,02,15,25,25.30
2009,08,02,15,26,25.40
2009,08,02,15,27,25.50
2009,08,02,15,28,25.60
2009,08,02,15,29,25.70
2009,08,02,15,30,25.80
2009,08,02,15,31,25.90
2009,08,02,15,32,25.90
2009,08,02,15,33,25.90
2009,08,02,15,34,25.90
2009,08,02,15,35,25.90
2009,08,02,15,36,25.90
2009,08,02,15,37,25.90
2009,08,02,15,38,25.90
2009,08,02,15,39,25.90
2009,08,02,15,40,25.90
2009,08,02,15,41,25.90
2009,08,02,15,42,26.10
2009,08,02,15,43,26.10
2009,08,02,15,44,26.20
2009,08,02,15,45,26.30
2009,08,02,15,46,26.30
2009,08,02,15,47,26.30
2009,08,02,15,48,26.30
2009,08,02,15,49,26.20
2009,08,02,15,50,26.20
2009,08,02,15,51,26.20
2009,08,02,15,52,26.10
2009,08,02,15,53,26.20
2009,08,02,15,54,26.20
2009,08,02,15,55,26.30
2009,08,02,15,56,26.40
2009,08,02,15,57,26.40
2009,08,02,15,58,26.40
2009,08,02,15,59,26.40
2009,08,02,16,00,26.50
2009,08,02,16,01,26.60
2009,08,02,16,02,26.60
2009,08,02,16,03,26.60
2009,08,02,16,04,26.50
2009,08,02,16,05,26.50
2009,08,02,16,06,26.50
2009,08,02,16,07,26.60
2009,08,02,16,08,26.60
2009,08,02,16,09,26.70
2009,08,02,16,10,26.80
2009,08,02,16,11,26.90
2009,08,02,16,12,27.00
2009,08,02,16,13,27.10
2009,08,02,16,14,27.20
2009,08,02,16,15,27.30
2009,08,02,16,16,27.30
2009,08,02,16,17,27.40
2009,08,02,16,18,27.40
2009,08,02,16,19,27.40
2009,08,02,16,20,27.40
2009,08,02,16,21,27.40
2009,08,02,16,22,27.30
2009,08,02,16,23,27.30
2009,08,02,16,24,27.30
2009,08,02,16,25,27.20
2009,08,02,16,26,27.20
2009,08,02,16,27,27.20
2009,08,02,16,28,27.20
2009,08,02,16,29,27.20
2009,08,02,16,30,27.30
2009,08,02,16,31,27.40
2009,08,02,16,32,27.40
2009,08,02,16,33,27.40
2009,08,02,16,34,27.50
2009,08,02,16,35,27.50
2009,08,02,16,36,27.50
2009,08,02,16,37,27.50
2009,08,02,16,38,27.50
2009,08,02,16,39,27.50
2009,08,02,16,40,27.50
2009,08,02,16,41,27.50
2009,08,02,16,42,27.40
2009,08,02,16,43,27.30
2009,08,02,16,44,27.30
2009,08,02,16,45,27.30
2009,08,02,16,46,27.30
2009,08,02,16,47,27.30
2009,08,02,16,48,27.30
2009,08,02,16,49,27.20
2009,08,02,16,50,27.20
2009,08,02,16,51,27.20
2009,08,02,16,52,27.20
2009,08,02,16,53,27.20
2009,08,02,16,54,27.30
2009,08,02,16,55,27.40
2009,08,02,16,56,27.50
2009,08,02,16,57,27.60
2009,08,02,16,58,27.70
2009,08,02,16,59,27.80
2009,08,02,17,00,27.90
2009,08,02,17,01,28.00
2009,08,02,17,02,28.00
2009,08,02,17,03,28.10
2009,08,02,17,04,28.20
2009,08,02,17,05,28.20
2009,08,02,17,06,28.30
2009,08,02,17,07,28.30
2009,08,02,17,08,28.30
2009,08,02,17,09,28.20
2009,08,02,17,10,28.10
2009,08,02,17,11,28.10
2009,08,02,17,12,27.90
2009,08,02,17,13,27.80
2009,08,02,17,14,27.70
2009,08,02,17,15,27.60
2009,08,02,17,16,27.60
2009,08,02,17,17,27.60
2009,08,02,17,18,27.60
2009,08,02,17,19,27.60